Regional Weather Roundup
Issued by NWS Newport/Morehead, NC

Current Version | Previous Version | Graphics & Text | Print | Product List | Glossary Off
Versions: 1 2 3 4 5 6 7 8 9 10 11 12 13 14 15 16 17 18 19 20 21 22 23 24 25 26 27 28 29 30 31 32 33 34 35 36 37 38 39 40 41 42 43 44 45 46 47 48 49 50

000
ASUS42 KMHX 172310
RWRMHX
WEATHER ROUNDUP FOR EASTERN NORTH CAROLINA
NATIONAL WEATHER SERVICE NEWPORT/MOREHEAD CITY NC
700 PM EDT WED SEP 17 2014

NOTE: "FAIR" INDICATES FEW OR NO CLOUDS BELOW 12,000 FEET
WITH NO SIGNIFICANT WEATHER AND/OR OBSTRUCTIONS TO VISIBILITY

NCZ015>017-031-032-045>047-102-103-180000-
NORTH COAST

CITY           SKY/WX    TMP DP  RH WIND       PRES   REMARKS
EDENTON        CLOUDY    70  62  76 E3        29.94S
ELIZABETH CITY MOCLDY    71  60  68 NE10      29.95R
KITTY HAWK     MOCLDY    72  60  65 NE7       29.92S
MANTEO         PTCLDY    71  61  69 NE12      29.93S

$$

NCZ045>047-081-094-103-104-180000-
CENTRAL COAST

CITY           SKY/WX    TMP DP  RH WIND       PRES   REMARKS
FRISCO         CLOUDY    71  64  78 NE9G20    29.90R
SWANQUARTER      N/A     72 N/A N/A NE5G12    29.88S

$$

NCZ095-097-098-100-101-180000-
SOUTHERN COAST

CITY           SKY/WX    TMP DP  RH WIND       PRES   REMARKS
BEAUFORT       PTCLDY    74  69  85 NE10      29.89S
CEDAR ISLAND     N/A     75 N/A N/A NE17      29.94S
JACKSONVILLE   PTCLDY    74  68  81 E12       29.89S
NEWPORT        NOT AVBL
PINEY ISLAND   CLOUDY    77  66  68 NE15G22   29.90S
WILMINGTON     MOCLDY    75  71  87 NE6       29.88R


$$

NCZ011>013-027>030-043-044-078>080-089-090>093-098-180000-
COASTAL PLAIN

CITY           SKY/WX    TMP DP  RH WIND       PRES   REMARKS
AHOSKIE        PTCLDY    69  62  78 CALM      29.95F
CLINTON        PTCLDY    76  70  81 CALM      29.90R
ELIZABETHTOWN  MOCLDY    77  68  74 CALM      29.89R
GOLDSBORO      PTCLDY    73  72  96 E3        29.90S
GREENVILLE     MOCLDY    72  63  73 E5        29.95S
HAVELOCK       MOCLDY    75  65  70 NE10      29.91S
KENANSVILLE    MOCLDY    74  67  80 CALM      29.91R
KINSTON        MOCLDY    73  64  73 NE8       29.92S
NEW BERN       CLOUDY    76  65  68 E8        29.92S
RICHLANDS      PTCLDY    72  66  83 E6        29.90S
ROANOKE RAPIDS NOT AVBL
ROCKY MOUNT    CLEAR     72  64  76 NE5       29.92F
WASHINGTON     PTCLDY    71  63  77 NE7       29.93F
WHITEVILLE     CLEAR     76  69  78 CALM      29.88R

$$

AMZ130-135-150-152-154-156-158-170-250-252-270-ANZ085-086-088-633-658-670-180000-
MARINE OBSERVATIONS

STATION/POSITION TIME  TEMP    WIND        PRES    WAVE   SWELL
                       AIR SEA DIR/SP/G            HT/PER HT/PER
                 (UTC) (F)     (DEG/KT/KT) (MB)    (FT/S) (FT/S)
CHESAPEAKE LIGHT 2200   70      50/ 14/ 16 1014.7
BUOY 44014       2300   73 78   40/ 14/ 16 1013.2    5/12   3/12
DUCK             2300   72 76   50/ 16/ 18 1013.1
2E DUCK          2300                        N/A     5/14   3/14
OREGON INLET     2300   73 76   30/ 11/ 16 1013.1
BUOY 44095       2300      76                N/A     6/13   3/13
20E OREGON INLET NOT AVBL
HATTERAS CG      2300   74 79   40/ 12/ 15 1012.9
DIAMOND BUOY     2300   75      20/ 16/ 19 1011.7    6/ 7   3/13
CAPE LOOKOUT     2200   75      40/ 17/ 19 1011.9
BEAUFORT LAB     2300   74 80   50/  7/ 12 1011.7
30 SE NEW RIVER  2300   78 82   50/ 12/ 16 1011.7    4/13   3/13
5 SE WRIGHTSVILL 2200   75 82   80/ 10/ 12   N/A
BUOY 41002       2227   78 82  290/ 10/ 12 1010.1    6/12   5/12
BUOY 41004       2300   80 83   10/  8/ 10 1011.1    4/12   3/12

$$



USA.gov is the U.S. government's official web portal to all federal, state and local government web resources and services.